Location: Colonia Mina de C?rbuni
(46.1667°N, 22.7167°E)
Time: 22:28:03
(UTC+00:00)

Tiros 1 - Pass Details

Date: 19 April 2024
Orbit: 624 x 657 km, 48.4° (Epoch: 20 May)

Event Time Altitude Azimuth Distance (km) Brightness Sun altitude
Rises 03:08:22 0° 286° (WNW) 2,912 10.0 -5.2°
Reaches altitude 10° 03:10:42 10° 287° (WNW) 2,001 9.2 -4.8°
Maximum altitude 03:15:18 85° 15° (NNE) 631 7.2 -4.1°
Drops below altitude 10° 03:19:53 10° 105° (ESE) 1,992 10.6 -3.3°
Sets 03:22:12 0° 106° (ESE) 2,898 11.5 -2.9°
